カタログに戻る

MEV-1

運用中科学GEO
NORAD 44625·PAYLOAD·🇺🇸 United States

打ち上げ Oct 9, 2019 から Baikonur Cosmodrome

Loading…

TLE

最新Source: Space-Track

元期: Sep 14, 2026, 04:52 UTC

1 44625U 19067B   26257.20286572 -.00000155  00000-0  00000+0 0  9999
2 44625   0.8207 267.9753 0004160 263.8733  50.5024  1.00273096 62453

AllMySatでMEV-1をリアルタイム追跡

Download on the App Store